This is the latest recevied weather packets stored in our database for station/object KI4MRC. If no packets are shown the sender has not sent any weather packets the latest 10 day(s).
| Time | Temp. | Humidity | Pressure | Rain* | Wind** | Luminosity | Snow |
|---|---|---|---|---|---|---|---|
| 1778011710 | 28.89° C | 67% | 1014 hPa | 0 mm | - | 138 W/m² | - |
| 1778011406 | 28.89° C | 68% | 1014 hPa | 0 mm | - | 214 W/m² | - |
| 1778011102 | 28.33° C | 67% | 1014.1 hPa | 0 mm | - | 189 W/m² | - |
| 1778010799 | 28.89° C | 68% | 1014.1 hPa | 0 mm | - | 153 W/m² | - |
| 1778010496 | 28.89° C | 67% | 1014.2 hPa | 0 mm | - | 142 W/m² | - |
| 1778010193 | 28.89° C | 67% | 1014.3 hPa | 0 mm | - | 100 W/m² | - |
| 1778009888 | 28.89° C | 68% | 1014.1 hPa | 0 mm | - | 127 W/m² | - |
| 1778009587 | 28.89° C | 69% | 1014.2 hPa | 0 mm | - | 510 W/m² | - |
| 1778009285 | 28.33° C | 70% | 1014.3 hPa | 0 mm | - | 163 W/m² | - |
| 1778008982 | 28.89° C | 69% | 1014.5 hPa | 0 mm | - | 228 W/m² | - |
| 1778008680 | 28.89° C | 69% | 1014.5 hPa | 0 mm | - | 246 W/m² | - |
| 1778008378 | 28.89° C | 68% | 1014.5 hPa | 0 mm | - | 709 W/m² | - |
| 1778008074 | 29.44° C | 67% | 1014.7 hPa | 0 mm | - | 345 W/m² | - |
| 1778007769 | 28.89° C | 67% | 1014.7 hPa | 0 mm | - | 800 W/m² | - |
| 1778007466 | 28.89° C | 69% | 1014.7 hPa | 0 mm | - | 800 W/m² | - |
| 1778007162 | 28.33° C | 70% | 1014.5 hPa | 0 mm | - | 891 W/m² | - |
| 1778006858 | 28.33° C | 70% | 1014.6 hPa | 0 mm | - | 397 W/m² | - |
| 1778006556 | 28.33° C | 69% | 1014.8 hPa | 0 mm | - | 287 W/m² | - |
| 1778006253 | 28.89° C | 70% | 1014.7 hPa | 0 mm | - | 281 W/m² | - |
| 1778005950 | 28.89° C | 70% | 1014.6 hPa | 0 mm | - | 300 W/m² | - |
| 1778005646 | 29.44° C | 69% | 1014.7 hPa | 0 mm | - | 273 W/m² | - |
| 1778005343 | 28.89° C | 69% | 1014.8 hPa | 0 mm | - | 946 W/m² | - |
| 1778005039 | 29.44° C | 71% | 1014.6 hPa | 0 mm | - | 954 W/m² | - |
| 1778004737 | 29.44° C | 68% | 1014.7 hPa | 0 mm | - | 1038 W/m² | - |
| 1778004434 | 29.44° C | 68% | 1014.7 hPa | 0 mm | - | 1076 W/m² | - |
* Rain latest hour (hover to see other rain measurements)
** Current wind speed in m/s (hover to see current wind gust speed)